Weather in Raksha

Russia / Tambov Oblast     53°33′20″N   41°37′13″E
temp.,
°C
wind,
m/s
gust,
m/s
humid.,
%
clouds,
%
prec.,
mm/h
press.,
hPa
HPBL,
m
28 february, sun
sun2800:00−12nnw369794 0.0 1013121
03:00−13nw349676 0.1 101456
06:00−14nw349655 0.0 101558
09:00−11nw359564 0.1 1015236
12:00−9nw359294 0.1 1015427
15:00−7nw359197 0.1 1016506
18:00−8nnw3592100 0.1 1017159
21:00−8n2694100 0.1 1019199
1 march, mon
mon100:00−10n1295100 0.1 102121
03:00−10nnw1197100 0.1 102221
06:00−11nne2297100 0.1 102322
09:00−11nw129576 0.1 102526
12:00−7w239348 0.0 1025221
15:00−5wsw469467 0.0 1024320
18:00−6wsw4119571 0.0 1022243
21:00−3wsw6129485 0.1 1020432
2 march, tue
tue200:00−3wsw71395100 0.2 1017463
03:00−1wsw71494100 0.8 1014627
06:000w81493100 0.2 1010849
09:000w81498100 0.6 1007750
12:000nw81399100 0.5 1006767
15:00+1nw71290100 0.6 1007857
18:00−2wnw5129460 0.1 1007303
21:00−2wnw6129378 0.3 1009435
3 march, wed
wed300:00−4wnw5129478 0.0 1009326
03:00−4nw6129480 0.1 1010486
06:00−4nw7139390 0.1 1010622
09:00−4nnw7129095 0.3 1012882
12:00−3nnw81184100 0.1 1014915
15:00−2nnw71283100 0.1 10151181
18:00−4nw5128980 0.1 1016453
21:00−7nw489457 0.1 1018175
4 march, thu
thu400:00−7wnw469674 0.0 1019136
03:00−7w479471 0.1 1018116
06:00−8wsw49940 0.0 1018145
09:00−6wsw612934 0.0 1016315
12:00−2wsw8148884 0.0 1014557
15:00−1wsw7148692 0.0 1012613
18:00−1sw71686100 0.0 1010625
21:00−1wsw8178553 0.0 1008630